Location: Obersdorf
(47.4079°N, 10.2781°E)
Time: 12:11:23
(UTC+01:00)

XW-2C - Pass Details

Date: 06 December 2021
Orbit: 503 x 523 km, 97.5° (Epoch: 16 January)

Event Time Altitude Azimuth Distance (km) Brightness Sun altitude
Rises 18:05:14 0° 192° (SSW) 2,614 ? -15.6°
Reaches altitude 10° 18:07:31 10° 204° (SSW) 1,737 ? -16.0°
Maximum altitude 18:10:47 28° 265° (W) 994 ? -16.5°
Drops below altitude 10° 18:14:06 10° 325° (NW) 1,761 ? -17.1°
Sets 18:16:26 0° 338° (NNW) 2,659 ? -17.4°
